SB KEPS @ AMSAT $ORB12306.O Orbital Elements 12306.OSCAR
HR AMSAT ORBITAL ELEMENTS FOR OSCAR SATELLITES FROM WA5QGD FORT WORTH,TX November 1, 2012 Send SUBSCRIBE KEPS/UNSUBSCRIBE KEPS to majordomo@amsat.org only BID: ORB12306.O TO ALL RADIO AMATEURS BT
Satellite: AO-07 Catalog number: 07530 Epoch time: 12305.61266837 Element set: 519 Inclination: 101.4138 deg RA of node: 297.6064 deg Eccentricity: 0.0012190 Arg of perigee: 015.9017 deg Mean anomaly: 344.2435 deg Mean motion: 12.53592419 rev/day Decay rate: -2.7e-07 rev/day^2 Epoch rev: 73714 Checksum: 284
Satellite: FO-29 Catalog number: 24278 Epoch time: 12306.28869221 Element set: 971 Inclination: 098.5863 deg RA of node: 029.0113 deg Eccentricity: 0.0351200 Arg of perigee: 034.5096 deg Mean anomaly: 327.8307 deg Mean motion: 13.52991556 rev/day Decay rate: 2.6e-07 rev/day^2 Epoch rev: 80049 Checksum: 310
Satellite: SO-33 Catalog number: 25509 Epoch time: 12305.93347612 Element set: 356 Inclination: 031.4358 deg RA of node: 279.7765 deg Eccentricity: 0.0352181 Arg of perigee: 319.8982 deg Mean anomaly: 037.6143 deg Mean motion: 14.28876317 rev/day Decay rate: 9.89e-06 rev/day^2 Epoch rev: 73222 Checksum: 337
Satellite: RS-22 Catalog number: 27939 Epoch time: 12306.56977698 Element set: 865 Inclination: 097.8005 deg RA of node: 140.2925 deg Eccentricity: 0.0012988 Arg of perigee: 185.3186 deg Mean anomaly: 174.7874 deg Mean motion: 14.64198639 rev/day Decay rate: 4.60e-06 rev/day^2 Epoch rev: 48598 Checksum: 377
Satellite: VO-52 Catalog number: 28650 Epoch time: 12305.67449663 Element set: 249 Inclination: 097.5856 deg RA of node: 329.8968 deg Eccentricity: 0.0025506 Arg of perigee: 315.0591 deg Mean anomaly: 044.8500 deg Mean motion: 14.83320317 rev/day Decay rate: 1.021e-05 rev/day^2 Epoch rev: 40520 Checksum: 303
Satellite: HO-68 Catalog number: 36122 Epoch time: 12306.78870820 Element set: 969 Inclination: 100.3448 deg RA of node: 003.2538 deg Eccentricity: 0.0007509 Arg of perigee: 151.8074 deg Mean anomaly: 208.3443 deg Mean motion: 13.16299473 rev/day Decay rate: -4.4e-07 rev/day^2 Epoch rev: 13849 Checksum: 306
/EX SB KEPS @ AMSAT $ORB12306.D Orbital Elements 12306.MICROS
HR AMSAT ORBITAL ELEMENTS FOR THE MICROSATS FROM WA5QGD FORT WORTH,TX November 1, 2012 Send SUBSCRIBE KEPS/UNSUBSCRIBE KEPS to majordomo@amsat.org only BID: ORB12306.D TO ALL RADIO AMATEURS BT
Satellite: UO-11 Catalog number: 14781 Epoch time: 12306.18159444 Element set: 14 Inclination: 097.9362 deg RA of node: 004.3872 deg Eccentricity: 0.0007598 Arg of perigee: 313.1734 deg Mean anomaly: 046.8843 deg Mean motion: 14.80631149 rev/day Decay rate: 6.32e-06 rev/day^2 Epoch rev: 54019 Checksum: 297
Satellite: AO-16 Catalog number: 20439 Epoch time: 12305.89042671 Element set: 594 Inclination: 098.4428 deg RA of node: 245.5220 deg Eccentricity: 0.0011773 Arg of perigee: 111.9760 deg Mean anomaly: 248.2671 deg Mean motion: 14.32104480 rev/day Decay rate: 2.02e-06 rev/day^2 Epoch rev: 18956 Checksum: 290
Satellite: LO-19 Catalog number: 20442 Epoch time: 12306.38181462 Element set: 524 Inclination: 098.4120 deg RA of node: 248.5386 deg Eccentricity: 0.0012708 Arg of perigee: 102.7072 deg Mean anomaly: 257.5527 deg Mean motion: 14.32319344 rev/day Decay rate: 1.65e-06 rev/day^2 Epoch rev: 18982 Checksum: 292
Satellite: AO-27 Catalog number: 22825 Epoch time: 12305.87690730 Element set: 232 Inclination: 098.5881 deg RA of node: 246.6523 deg Eccentricity: 0.0007641 Arg of perigee: 236.6967 deg Mean anomaly: 123.3479 deg Mean motion: 14.29503227 rev/day Decay rate: 5.0e-07 rev/day^2 Epoch rev: 99600 Checksum: 314
Satellite: IO-26 Catalog number: 22826 Epoch time: 12306.90118037 Element set: 986 Inclination: 098.5828 deg RA of node: 247.9970 deg Eccentricity: 0.0008168 Arg of perigee: 226.8036 deg Mean anomaly: 133.2462 deg Mean motion: 14.29781950 rev/day Decay rate: 1.69e-06 rev/day^2 Epoch rev: 99628 Checksum: 347
Satellite: GO-32 Catalog number: 25397 Epoch time: 12305.56850286 Element set: 911 Inclination: 098.3813 deg RA of node: 277.6867 deg Eccentricity: 0.0000527 Arg of perigee: 207.2148 deg Mean anomaly: 152.8988 deg Mean motion: 14.23302497 rev/day Decay rate: -8.1e-07 rev/day^2 Epoch rev: 74342 Checksum: 323
Satellite: NO-44 Catalog number: 26931 Epoch time: 12306.00220421 Element set: 173 Inclination: 067.0495 deg RA of node: 127.7101 deg Eccentricity: 0.0005443 Arg of perigee: 249.4943 deg Mean anomaly: 110.5564 deg Mean motion: 14.29851241 rev/day Decay rate: 1.79e-06 rev/day^2 Epoch rev: 57880 Checksum: 278
Satellite: SO-50 Catalog number: 27607 Epoch time: 12306.15649847 Element set: 903 Inclination: 064.5582 deg RA of node: 238.1832 deg Eccentricity: 0.0073401 Arg of perigee: 220.7459 deg Mean anomaly: 138.8115 deg Mean motion: 14.72609172 rev/day Decay rate: 5.80e-06 rev/day^2 Epoch rev: 53013 Checksum: 297
Satellite: CO-55 Catalog number: 27844 Epoch time: 12306.07966544 Element set: 497 Inclination: 098.7035 deg RA of node: 312.4800 deg Eccentricity: 0.0009342 Arg of perigee: 184.0957 deg Mean anomaly: 176.0122 deg Mean motion: 14.21103570 rev/day Decay rate: 3.50e-06 rev/day^2 Epoch rev: 48433 Checksum: 293
Satellite: CO-57 Catalog number: 27848 Epoch time: 12306.53019129 Element set: 446 Inclination: 098.7136 deg RA of node: 312.3234 deg Eccentricity: 0.0009284 Arg of perigee: 187.4218 deg Mean anomaly: 172.6805 deg Mean motion: 14.20845315 rev/day Decay rate: 3.16e-06 rev/day^2 Epoch rev: 48433 Checksum: 307
Satellite: AO-51 Catalog number: 28375 Epoch time: 12305.31695873 Element set: 401 Inclination: 098.1662 deg RA of node: 264.3956 deg Eccentricity: 0.0084057 Arg of perigee: 349.4180 deg Mean anomaly: 010.5242 deg Mean motion: 14.41018589 rev/day Decay rate: 4.00e-06 rev/day^2 Epoch rev: 43837 Checksum: 303
Satellite: CP3 Catalog number: 31129 Epoch time: 12306.24319440 Element set: 302 Inclination: 097.8844 deg RA of node: 305.9902 deg Eccentricity: 0.0101850 Arg of perigee: 057.0951 deg Mean anomaly: 303.9999 deg Mean motion: 14.53290665 rev/day Decay rate: 7.53e-06 rev/day^2 Epoch rev: 29388 Checksum: 310
Satellite: CO-65 Catalog number: 32785 Epoch time: 12305.86258397 Element set: 456 Inclination: 097.7830 deg RA of node: 003.5809 deg Eccentricity: 0.0013777 Arg of perigee: 340.2324 deg Mean anomaly: 019.8307 deg Mean motion: 14.83334163 rev/day Decay rate: 1.398e-05 rev/day^2 Epoch rev: 24402 Checksum: 318
Satellite: PRISM Catalog number: 33493 Epoch time: 12306.78935961 Element set: 216 Inclination: 098.1891 deg RA of node: 090.8612 deg Eccentricity: 0.0018114 Arg of perigee: 208.3975 deg Mean anomaly: 151.6237 deg Mean motion: 14.84687356 rev/day Decay rate: 4.142e-05 rev/day^2 Epoch rev: 20416 Checksum: 311
Satellite: SOHLA-1 Catalog number: 33496 Epoch time: 12306.25915761 Element set: 874 Inclination: 098.1169 deg RA of node: 057.1888 deg Eccentricity: 0.0006391 Arg of perigee: 334.9034 deg Mean anomaly: 025.1863 deg Mean motion: 14.70097357 rev/day Decay rate: 3.44e-06 rev/day^2 Epoch rev: 20238 Checksum: 313
Satellite: SO-67 Catalog number: 35870 Epoch time: 12306.82858006 Element set: 472 Inclination: 097.2184 deg RA of node: 337.7230 deg Eccentricity: 0.0003572 Arg of perigee: 061.9241 deg Mean anomaly: 352.2818 deg Mean motion: 15.25029521 rev/day Decay rate: 4.861e-05 rev/day^2 Epoch rev: 17358 Checksum: 307
Satellite: TISAT-1 Catalog number: 36799 Epoch time: 12306.78945474 Element set: 490 Inclination: 098.0537 deg RA of node: 024.0925 deg Eccentricity: 0.0016045 Arg of perigee: 086.7963 deg Mean anomaly: 273.5039 deg Mean motion: 14.82478822 rev/day Decay rate: 2.452e-05 rev/day^2 Epoch rev: 12487 Checksum: 336
Satellite: STUDSAT Catalog number: 36801 Epoch time: 12306.80413512 Element set: 509 Inclination: 098.0646 deg RA of node: 025.5245 deg Eccentricity: 0.0012736 Arg of perigee: 070.7896 deg Mean anomaly: 289.4667 deg Mean motion: 14.85794267 rev/day Decay rate: 6.821e-05 rev/day^2 Epoch rev: 12494 Checksum: 320
Satellite: FO-69 Catalog number: 37227 Epoch time: 12306.51363732 Element set: 0326 Inclination: 071.9729 deg RA of node: 008.8938 deg Eccentricity: 0.0015176 Arg of perigee: 062.7785 deg Mean anomaly: 297.4922 deg Mean motion: 14.77248880 rev/day Decay rate: 6.45e-06 rev/day^2 Epoch rev: 05637 Checksum: 345
Satellite: FO-70 Catalog number: 37380 Epoch time: 12306.47471935 Element set: 0330 Inclination: 071.9756 deg RA of node: 009.7125 deg Eccentricity: 0.0015791 Arg of perigee: 059.4361 deg Mean anomaly: 300.8328 deg Mean motion: 14.76995122 rev/day Decay rate: 5.42e-06 rev/day^2 Epoch rev: 05625 Checksum: 305
Satellite: ALMASAT-1 Catalog number: 38078 Epoch time: 12306.65996326 Element set: 700 Inclination: 069.4734 deg RA of node: 004.7544 deg Eccentricity: 0.0734096 Arg of perigee: 075.9029 deg Mean anomaly: 292.2493 deg Mean motion: 14.14575265 rev/day Decay rate: 1.3853e-04 rev/day^2 Epoch rev: 3695 Checksum: 332
Satellite: XATCOBEO Catalog number: 38082 Epoch time: 12306.58444285 Element set: 662 Inclination: 069.4837 deg RA of node: 358.0988 deg Eccentricity: 0.0680417 Arg of perigee: 072.2381 deg Mean anomaly: 295.1736 deg Mean motion: 14.29069706 rev/day Decay rate: 3.5901e-04 rev/day^2 Epoch rev: 3712 Checksum: 329
/EX SB KEPS @ AMSAT $ORB12306.W Orbital Elements 12306.WEATHER
HR AMSAT ORBITAL ELEMENTS FOR WEATHER SATELLITES FROM WA5QGD FORT WORTH,TX November 1, 2012 Send SUBSCRIBE KEPS/UNSUBSCRIBE KEPS to majordomo@amsat.org only BID: ORB12306.W TO ALL RADIO AMATEURS BT
Satellite: NOAA-10 Catalog number: 16969 Epoch time: 12306.53453691 Element set: 119 Inclination: 098.5707 deg RA of node: 333.0695 deg Eccentricity: 0.0011888 Arg of perigee: 188.7456 deg Mean anomaly: 171.3525 deg Mean motion: 14.27590566 rev/day Decay rate: 1.65e-06 rev/day^2 Epoch rev: 35946 Checksum: 339
